Location: Владивосток
(43.1151°N, 131.8856°E)
Time: 23:09:07
(UTC+10:00)

Envisat - Pass Details

Date: 20 January 2022
Orbit: 764 x 765 km, 98.2° (Epoch: 17 May)

Event Time Altitude Azimuth Distance (km) Brightness Sun altitude
Rises 06:20:47 0° 11° (N) 3,240 6.3 -24.9°
Reaches altitude 10° 06:23:06 10° 9° (N) 2,309 5.5 -24.5°
Maximum altitude 06:28:11 74° 286° (WNW) 798 2.8 -23.5°
Drops below altitude 10° 06:33:13 10° 202° (SSW) 2,294 5.3 -22.6°
Sets 06:35:31 0° 200° (SSW) 3,216 6.1 -22.2°
